This demonstration page uses our WeatherBlox Daily Observations layout. Learn more.

Left ArrowRight Arrow

Hourly Observations for March 18, 2020

Temp ( °F °C ) Dew Point ( °F °C ) Humidity (%) Winds ( mph kmh ) Pressure ( in mb ) Visibility ( mi km ) Precip ( " mm )
12:08 am 00:08 Cloudy with Light Rain 40 4.4 38 3.3 93 93 NNE 7 11 29.93 1014 5 8 0.01 0.25
12:53 am 00:53 Cloudy 40 4.4 38 3.3 93 93 NNE 6 9 29.91 1013 10 16 0.03 0.76
1:23 am 01:23 Cloudy 40 4.4 38 3.3 93 93 N 3 6 29.93 1014 8 13 0.00 0.00
1:53 am 01:53 Cloudy 40 4.4 38 3.3 93 93 N 6 9 29.91 1013 10 16 0.01 0.25
2:11 am 02:11 Cloudy with Light Rain 40 4.4 38 3.3 93 93 NE 3 6 29.92 1013 10 16 0.01 0.25
2:50 am 02:50 Cloudy with Light Rain 39 4 37 3 93 93 NE 3 6 29.92 1013 10 16 0.03 0.76
2:53 am 02:53 Cloudy with Light Rain 40 4.4 38 3.3 93 93 Calm 29.91 1013 10 16 0.03 0.76
3:01 am 03:01 Cloudy with Light Rain 40 4.4 38 3.3 93 93 Calm 29.92 1013 10 16 0.00 0.00
3:23 am 03:23 Cloudy 40 4.4 38 3.3 93 93 NE 3 6 29.92 1013 10 16 0.00 0.00
3:38 am 03:38 Cloudy 40 4.4 38 3.3 93 93 NNE 5 7 29.91 1013 9 14 0.00 0.00
3:53 am 03:53 Cloudy 40 4.4 38 3.3 93 93 NNE 3 6 29.89 1012 8 13 0.00 0.00
4:13 am 04:13 Cloudy 40 4.4 38 3.3 93 93 NE 3 6 29.90 1012 10 16 0.00 0.00
4:53 am 04:53 Cloudy 40 4.4 39 3.9 97 97 Calm 29.88 1012 7 11 0.00 0.00
5:29 am 05:29 Cloudy with Light Rain 40 4.4 39 3.9 97 97 N 3 6 29.89 1012 7 11 0.01 0.25
5:40 am 05:40 Cloudy 41 5 39 3.9 93 93 Calm 29.89 1012 8 13 0.01 0.25
5:53 am 05:53 Cloudy 41 5 39 3.9 93 93 Calm 29.88 1012 10 16 0.01 0.25
6:08 am 06:08 Cloudy 41 5 39 3.9 93 93 Calm 29.90 1012 10 16 0.00 0.00
6:53 am 06:53 Cloudy 41 5 39 3.9 93 93 NNE 5 7 29.88 1012 10 16 0.00 0.00
7:53 am 07:53 Cloudy 42 5.6 40 4.4 92 92 N 3 6 29.89 1012 10 16 0.00 0.00
9:53 am 09:53 Cloudy 43 6.1 40 4.4 89 89 Calm 29.91 1013 10 16 0.00 0.00
10:53 am 10:53 Cloudy 44 6.7 40 4.4 85 85 NNE 3 6 29.91 1013 10 16 0.00 0.00
11:53 am 11:53 Cloudy 45 7.2 40 4.4 83 83 Calm 29.92 1013 10 16 0.00 0.00
12:00 pm 12:00 Cloudy 46 7.8 40 4.4 79 79 Calm 29.93 1014 10 16 0.00 0.00
12:07 pm 12:07 Cloudy 46 7.8 40 4.4 79 79 Calm 29.93 1014 10 16 0.00 0.00
12:53 pm 12:53 Cloudy 47 8.3 40 4.4 77 77 Calm 29.91 1013 10 16 0.00 0.00
1:00 pm 13:00 Cloudy 47 8.3 39 3.9 74 74 Calm 29.92 1013 10 16 0.00 0.00
1:53 pm 13:53 Cloudy 48 8.9 40 4.4 74 74 NW 3 6 29.89 1012 10 16 0.00 0.00
2:53 pm 14:53 Cloudy 47 8.3 40 4.4 77 77 S 5 7 29.87 1012 10 16 0.00 0.00
3:53 pm 15:53 Cloudy 49 9.4 40 4.4 71 71 ENE 5 7 29.88 1012 10 16 0.00 0.00
4:00 pm 16:00 Cloudy 50 10 40 4.4 68 68 Calm 29.89 1012 10 16 0.00 0.00
4:53 pm 16:53 Mostly Cloudy 50 10 40 4.4 68 68 ENE 5 7 29.86 1011 10 16 0.00 0.00
5:53 pm 17:53 Sunny 50 10 39 3.9 66 66 N 3 6 29.85 1011 10 16 0.00 0.00
6:53 pm 18:53 Partly Cloudy 49 9.4 41 5 74 74 NW 3 6 29.85 1011 10 16 0.00 0.00
7:53 pm 19:53 Clear 45 7.2 40 4.4 83 83 NNW 3 6 29.85 1011 10 16 0.00 0.00
8:53 pm 20:53 Clear 43 6.1 40 4.4 89 89 Calm 29.86 1011 10 16 0.00 0.00
9:53 pm 21:53 Clear 41 5 38 3.3 89 89 NW 5 7 29.88 1012 10 16 0.00 0.00
10:53 pm 22:53 Clear 40 4.4 38 3.3 93 93 NNW 5 7 29.89 1012 10 16 0.00 0.00
11:53 pm 23:53 Clear 39 3.9 37 2.8 93 93 Calm 29.90 1013 10 16 0.00 0.00

Powered by AerisWeather